Lake Shipp Weather Center

Moon Phase Calendar



Lake Shipp Water Level
Online Cameras

 


      

Current Conditions in Winter Haven
7/2/2022 7:19:48 PM

80°F
Feels Like 80
Clouds
Humidity
81%
Pressure
30.03"
Wind
5.8 mph (N)
Dew Point
73°F
UV Index
0/10 (Low)
Visibility
6 mi

Hourly Forecast

Date & Time Sat, Jul 2
7:00 PM
Sat, Jul 2
8:00 PM
Sat, Jul 2
9:00 PM
Sat, Jul 2
10:00 PM
Sat, Jul 2
11:00 PM
Sun, Jul 3
12:00 AM
Sun, Jul 3
1:00 AM
Sun, Jul 3
2:00 AM
Sun, Jul 3
3:00 AM
Sun, Jul 3
4:00 AM
Sun, Jul 3
5:00 AM
Sun, Jul 3
6:00 AM
Sun, Jul 3
7:00 AM
Sun, Jul 3
8:00 AM
Sun, Jul 3
9:00 AM
Sun, Jul 3
10:00 AM
Sun, Jul 3
11:00 AM
Sun, Jul 3
12:00 PM
Sun, Jul 3
1:00 PM
Sun, Jul 3
2:00 PM
Sun, Jul 3
3:00 PM
Sun, Jul 3
4:00 PM
Sun, Jul 3
5:00 PM
Sun, Jul 3
6:00 PM
Sun, Jul 3
7:00 PM
Sun, Jul 3
8:00 PM
Sun, Jul 3
9:00 PM
Sun, Jul 3
10:00 PM
Sun, Jul 3
11:00 PM
Mon, Jul 4
12:00 AM
Mon, Jul 4
1:00 AM
Mon, Jul 4
2:00 AM
Mon, Jul 4
3:00 AM
Mon, Jul 4
4:00 AM
Mon, Jul 4
5:00 AM
Mon, Jul 4
6:00 AM
Mon, Jul 4
7:00 AM
Mon, Jul 4
8:00 AM
Mon, Jul 4
9:00 AM
Mon, Jul 4
10:00 AM
Mon, Jul 4
11:00 AM
Mon, Jul 4
12:00 PM
Mon, Jul 4
1:00 PM
Mon, Jul 4
2:00 PM
Mon, Jul 4
3:00 PM
Mon, Jul 4
4:00 PM
Mon, Jul 4
5:00 PM
Mon, Jul 4
6:00 PM
Condition
Rain

Clouds

Clouds

Rain

Clouds

Clouds

Clouds

Clouds

Clouds

Clouds

Clouds

Clouds

Clouds

Rain

Clouds

Clouds

Rain

Rain

Rain

Rain

Clouds

Clouds

Rain

Rain

Rain

Rain

Rain

Clouds

Clouds

Clouds

Clouds

Clouds

Clouds

Clouds

Clouds

Clouds

Clouds

Clouds

Clouds

Clouds

Clouds

Clouds

Clouds

Rain

Rain

Clouds

Clouds

Clouds
Temperature 80°F79°F79°F79°F79°F78°F78°F77°F76°F76°F75°F75°F75°F78°F81°F84°F85°F87°F89°F91°F91°F90°F88°F77°F74°F70°F72°F74°F75°F75°F76°F75°F75°F75°F75°F74°F75°F77°F80°F83°F85°F87°F89°F90°F91°F91°F91°F91°F
Feels Like 80°F79°F79°F79°F79°F79°F79°F79°F78°F77°F77°F76°F76°F79°F85°F90°F92°F94°F95°F97°F97°F95°F94°F79°F76°F71°F73°F75°F77°F77°F77°F77°F76°F76°F76°F76°F76°F78°F84°F88°F90°F92°F94°F96°F95°F96°F95°F95°F
Cloudiness 20%36%52%68%84%99%99%99%84%84%89%85%85%84%14%11%10%17%33%44%100%100%100%100%100%100%100%100%100%100%100%99%100%92%71%68%71%66%40%44%51%57%63%68%97%97%88%85%
Visibility 6 mi6 mi6 mi6 mi6 mi6 mi6 mi6 mi6 mi6 mi6 mi6 mi6 mi6 mi6 mi6 mi6 mi6 mi6 mi6 mi6 mi6 mi6 mi1 mi1 mi3 mi6 mi6 mi6 mi6 mi6 mi6 mi6 mi6 mi6 mi6 mi6 mi6 mi6 mi6 mi6 mi6 mi6 mi6 mi6 mi6 mi6 mi6 mi
Precipitation 72%84%76%92%72%88%84%80%0%8%4%8%16%40%0%12%48%60%72%76%56%68%76%88%100%100%76%76%76%76%72%68%0%0%0%0%0%0%0%0%0%12%24%28%32%36%32%28%
Humidity 81%82%81%81%81%83%85%85%87%88%88%89%89%83%75%68%65%60%55%52%49%50%59%89%95%93%89%91%89%89%88%89%90%90%90%90%90%84%76%68%61%57%54%51%48%49%47%48%
Dew Point 73°F73°F73°F72°F72°F73°F72°F72°F72°F72°F72°F71°F72°F72°F72°F72°F72°F72°F71°F70°F70°F69°F71°F74°F73°F68°F69°F71°F72°F72°F72°F72°F72°F72°F71°F71°F71°F72°F72°F71°F70°F70°F70°F70°F69°F69°F68°F68°F
Pressure 30.03"30.03"30.03"30.06"30.06"30.06"30.03"30.03"30.03"30.03"30.03"30.03"30.06"30.06"30.09"30.09"30.09"30.09"30.09"30.09"30.06"30.03"30.03"30.03"30.03"30.09"30.09"30.09"30.09"30.09"30.09"30.09"30.06"30.06"30.06"30.06"30.09"30.09"30.12"30.12"30.12"30.12"30.12"30.09"30.06"30.06"30.03"30.03"
Wind Speed 5.6 mph6.7 mph3.6 mph6.7 mph6.3 mph5.8 mph7 mph7.5 mph6.5 mph6.3 mph5.9 mph6 mph5.3 mph5.8 mph6.2 mph6.2 mph5.7 mph4.9 mph4.3 mph4.5 mph4.6 mph1.7 mph4.5 mph10 mph15.5 mph8.2 mph6 mph6.4 mph4.6 mph4.6 mph4.4 mph5.3 mph5.3 mph5.4 mph4.9 mph4.6 mph4.9 mph4.8 mph5.4 mph5.8 mph5.6 mph5 mph4.8 mph4.8 mph4.9 mph4.2 mph4.4 mph5.1 mph
Wind
Direction
11°
N
352°
N

N
34°
NE
62°
ENE
112°
ESE
136°
SE
148°
SSE
156°
SSE
161°
SSE
159°
SSE
163°
SSE
175°
S
177°
S
189°
S
202°
SSW
204°
SSW
216°
SW
239°
WSW
245°
WSW
256°
WSW
185°
S
317°
NW
350°
N
10°
N
89°
E
131°
SE
103°
ESE
152°
SSE
164°
SSE
122°
ESE
107°
ESE
111°
ESE
121°
ESE
125°
SE
123°
ESE
126°
SE
127°
SE
133°
SE
139°
SE
141°
SE
137°
SE
128°
SE
119°
ESE
96°
E
64°
ENE
48°
NE
60°
ENE

Daily Forecast

Date High Low Precip. Humidity
Today
Jul 2

Rain
89 °F
75 °F
100%
55%
Sunday
Jul 3

Rain
91 °F
70 °F
100%
55%
Monday
Jul 4

Rain
91 °F
74 °F
76%
51%
Tuesday
Jul 5

Rain
94 °F
76 °F
28%
46%
Wednesday
Jul 6

Rain
95 °F
76 °F
68%
46%
Thursday
Jul 7

Rain
93 °F
77 °F
80%
47%
Friday
Jul 8

Rain
90 °F
76 °F
68%
53%
Saturday
Jul 9

Rain
92 °F
76 °F
84%
44%
Sunday
Jul 10

Clouds
92 °F
76 °F
80%
47%
Monday
Jul 11

Rain
94 °F
76 °F
57%
44%
Tuesday
Jul 12

Rain
88 °F
76 °F
100%
58%
Wednesday
Jul 13

Rain
78 °F
73 °F
100%
84%
Thursday
Jul 14

Rain
88 °F
72 °F
100%
63%
Friday
Jul 15

Rain
94 °F
76 °F
64%
46%
Saturday
Jul 16

Clouds
95 °F
77 °F
53%
50%
Sunday
Jul 17

Clouds
95 °F
79 °F
8%
41%

Temperature 8-14 Day Outlook



Precipitation 8-14 Day Outlook




Quick Links
Lake Shipp News
Lake Shipp Photos
Lake Shipp Videos




About Us
Contact Us
Site Map
Search Site
Advertise With Us
   
Shipp.USLakes.info
THE LAKE SHIPP WEBSITE

Copyright 2022, Lakes Online
Privacy    |    Legal